Wind_Speed
27 28 29 30 30 30 30 31 32 33 35 36 38 40 42 43 44 46 47 48 48 48 48 48 48 48 47 47 46 46 46 49 53 54 53 51 49 46 44 44 43 43 42 42 41 41 40 38 38 38 38 38 36 35 35 33 31 28 25 22 20 16 17 19 15 11 10 8 9 8 7 9 13 14 13 11 8 4 3 2 1 7 12 15 16 19 22 26
25 27 29 30 32 32 32 32 33 33 34 35 37 39 41 43 45 46 47 49 50 50 50 50 50 50 49 49 49 48 47 48 51 54 55 54 51 49 47 46 45 44 44 44 43 42 42 41 40 40 40 40 38 37 37 36 32 29 27 24 22 19 18 21 17 13 12 9 10 9 7 10 13 13 12 11 8 4 3 3 2 6 11 13 15 18 21 24
25 26 27 29 30 32 34 35 35 35 35 36 37 38 40 43 45 46 48 49 51 51 52 52 52 52 51 51 51 50 50 49 50 53 56 56 54 52 50 49 48 47 46 45 45 44 44 43 43 42 42 42 40 38 38 37 34 32 31 28 25 22 21 22 18 15 15 12 12 11 11 14 13 11 12 10 6 4 6 5 2 6 10 12 13 17 19 21
26 26 27 28 29 30 32 35 37 38 38 37 37 38 39 41 44 46 48 50 51 53 53 54 54 54 53 53 53 53 52 51 50 52 56 57 56 55 53 52 51 49 48 47 47 46 46 45 44 43 42 43 42 40 39 39 37 33 32 31 26 23 23 23 21 17 17 15 15 14 15 14 11 12 12 8 5 6 7 5 3 5 8 10 12 15 17 19
26 28 29 29 29 30 31 32 35 37 40 41 40 40 40 40 42 45 47 50 51 53 54 55 56 56 56 55 55 55 54 53 54 54 54 56 58 58 56 55 54 52 51 50 49 49 48 46 45 45 44 44 44 42 41 40 39 33 33 34 29 24 22 22 23 20 19 18 18 17 16 13 13 14 10 6 6 7 8 6 3 3 5 8 10 13 15 18
26 27 29 31 32 32 32 33 34 35 38 41 43 43 42 42 42 43 46 49 52 53 55 56 57 58 58 57 57 56 55 56 57 55 54 55 57 59 59 58 57 55 53 52 52 50 50 48 48 47 46 46 46 45 43 42 41 37 35 35 31 26 24 23 24 24 22 20 18 18 16 14 16 14 8 6 6 6 8 5 3 3 1 6 8 10 13 16
27 27 28 30 32 34 35 36 36 36 37 39 41 44 45 45 45 45 45 47 50 53 55 56 58 59 59 59 59 58 58 59 59 57 55 55 56 58 60 61 60 58 56 54 53 52 51 50 49 49 48 48 48 47 45 44 44 42 39 37 33 29 27 26 26 27 27 23 20 18 16 15 16 13 10 9 8 7 7 3 5 6 4 3 6 8 11 13
28 28 28 29 30 32 35 37 39 40 40 40 40 42 45 47 48 48 47 48 50 52 55 57 58 59 60 61 60 60 59 60 61 59 59 57 56 57 60 62 62 61 59 56 55 54 53 52 51 51 50 49 49 48 47 46 45 44 42 39 38 35 31 29 28 28 30 28 24 21 17 16 16 14 12 12 10 8 5 6 8 9 8 2 4 6 9 11
30 29 29 30 30 31 33 35 39 42 44 44 43 43 43 46 48 50 51 50 51 52 54 56 59 60 61 61 62 62 61 63 65 61 60 60 58 58 59 62 64 63 62 59 58 57 55 55 53 52 51 50 50 50 49 48 47 46 44 41 40 38 34 31 29 28 31 32 29 24 20 19 18 15 14 15 14 11 8 8 9 10 10 5 4 4 7 9
33 32 32 31 32 33 33 34 36 40 44 47 47 47 46 46 47 49 51 53 53 53 54 56 58 60 61 62 63 62 63 66 67 63 62 62 61 60 60 61 64 65 65 63 61 60 58 57 55 54 53 52 52 53 53 51 50 49 46 43 41 38 35 32 30 30 31 33 32 29 25 22 21 17 16 17 15 13 12 8 8 11 11 10 7 4 6 8
37 37 36 35 34 35 35 35 36 37 41 45 49 51 51 50 48 48 50 53 55 56 56 56 58 60 61 63 63 63 65 68 68 66 65 65 64 63 62 61 62 64 66 66 64 62 61 58 57 56 54 55 56 56 54 52 51 50 48 46 44 40 36 34 32 32 32 32 32 32 28 25 23 19 18 18 15 14 13 9 10 13 13 15 12 5 4 7
42 41 40 39 38 38 38 38 37 38 39 42 47 51 53 54 53 52 51 51 54 56 58 58 58 59 61 63 64 64 65 67 70 69 66 66 66 64 64 63 62 63 65 67 66 65 63 60 59 58 57 58 58 56 54 54 53 53 50 48 46 42 39 39 36 34 34 33 34 35 31 26 23 20 20 20 18 18 16 13 14 15 15 17 13 7 6 7
46 45 45 43 43 42 41 41 40 40 41 42 44 48 52 56 57 57 56 54 53 55 58 60 60 60 61 63 64 65 66 68 71 70 67 68 68 66 66 66 64 63 64 66 67 67 66 63 62 61 60 60 59 57 57 57 57 56 54 50 48 44 40 41 41 37 37 36 35 37 35 30 26 21 21 22 21 20 19 18 17 16 16 15 13 12 9 7
51 51 50 49 47 46 44 43 43 43 43 43 44 46 49 54 58 60 60 59 57 55 56 58 61 62 62 63 64 65 67 69 72 72 69 70 70 69 68 68 67 65 64 65 67 69 68 67 66 64 63 64 62 61 62 61 60 59 57 53 51 48 41 41 45 43 40 38 37 38 37 35 30 24 23 23 21 20 20 19 17 17 17 15 15 15 10 7
57 57 56 54 52 50 48 46 45 44 44 44 44 45 48 51 56 60 62 63 62 60 58 58 60 63 64 64 65 66 66 69 73 73 71 71 72 71 70 70 69 68 66 65 65 68 69 70 69 67 67 67 64 65 65 63 61 60 58 56 54 53 46 42 45 46 43 40 39 39 38 37 35 30 28 27 24 21 20 19 18 18 17 15 15 14 10 8
62 61 61 59 57 55 52 50 48 46 45 45 45 45 47 50 54 58 62 65 66 65 63 61 60 62 65 66 68 68 67 70 74 74 72 73 73 73 72 72 71 70 69 67 66 67 69 71 71 70 71 69 67 67 66 63 61 60 60 59 57 57 53 47 45 45 45 43 41 40 39 38 37 35 32 29 27 24 21 21 20 19 18 16 13 14 13 9
64 64 64 62 61 58 55 52 50 48 47 46 46 46 47 50 53 56 60 64 67 68 67 66 64 64 64 67 71 70 68 69 72 74 74 74 75 75 74 74 73 72 71 70 69 67 67 69 72 74 74 71 69 69 67 64 63 62 62 61 60 59 57 53 49 47 46 45 43 41 40 39 38 37 34 31 28 26 24 23 22 20 18 16 12 15 15 10
66 67 66 65 63 61 57 54 52 50 48 47 46 45 47 50 54 57 59 62 66 68 70 70 70 68 66 67 70 71 70 70 72 74 74 75 76 76 76 76 75 74 73 72 71 69 68 70 73 75 74 71 70 70 68 66 65 65 65 64 63 62 59 57 55 51 48 46 44 42 41 41 40 39 37 34 30 26 24 24 22 18 17 15 12 14 15 12
68 69 70 68 66 64 60 56 53 50 49 47 46 45 46 49 54 58 60 62 64 67 71 73 73 72 70 70 70 71 71 72 74 75 74 75 76 77 78 78 77 77 75 74 73 72 72 72 72 71 72 73 72 73 71 69 68 68 67 66 65 64 62 59 58 55 53 49 45 44 43 42 42 41 39 37 31 23 22 21 19 17 16 14 11 13 16 14
71 72 73 72 70 67 63 58 53 50 48 46 45 44 46 49 54 59 61 63 64 66 70 73 75 75 74 72 70 69 70 73 76 76 75 74 75 78 79 79 79 79 77 76 75 75 75 73 70 69 72 74 76 76 74 71 71 70 69 68 67 66 64 62 60 59 57 53 49 46 45 44 43 41 40 38 31 25 23 20 18 19 16 13 11 14 18 15
74 75 75 75 74 71 66 59 53 48 45 44 43 43 45 49 54 58 61 63 64 66 69 71 74 76 76 75 73 71 72 75 79 79 77 76 77 80 81 81 80 80 80 79 78 78 76 74 72 71 73 74 77 78 76 73 73 73 71 70 69 68 66 63 61 61 60 57 52 48 45 45 44 42 41 40 34 29 27 23 20 20 18 15 16 19 21 19
77 78 79 78 78 74 66 58 51 46 42 41 41 42 44 48 52 56 59 63 65 67 68 70 73 75 76 76 76 75 76 79 82 82 80 79 80 80 81 82 82 82 82 81 80 79 77 75 75 75 75 74 76 78 78 76 75 75 74 73 71 69 67 63 62 63 61 59 56 52 47 44 45 44 41 40 38 32 29 26 23 22 21 20 21 21 23 19
80 81 82 82 79 73 63 54 47 43 39 38 39 41 43 47 50 54 58 61 64 67 68 70 72 73 75 77 78 79 79 81 82 83 83 83 82 81 81 82 83 84 84 83 82 80 78 78 78 79 78 75 75 77 79 79 78 76 75 74 73 71 68 65 65 64 62 60 58 56 52 46 45 45 42 40 38 35 31 28 26 26 25 24 23 24 25 19
84 85 85 83 78 69 58 50 43 40 37 37 38 40 42 45 48 52 55 59 62 66 68 70 72 73 75 76 78 80 81 81 81 82 84 86 85 83 81 82 83 84 85 84 84 82 81 81 81 81 80 78 77 77 78 80 80 78 76 75 75 74 71 69 69 66 64 63 60 59 57 52 48 47 44 40 38 38 37 32 29 31 30 27 26 26 27 22
87 87 86 83 74 63 52 45 40 37 36 36 37 38 41 43 46 50 53 57 60 64 67 70 72 73 75 76 78 80 81 82 82 82 86 89 88 85 84 83 83 84 86 86 86 84 83 83 83 83 82 80 80 79 78 79 80 78 76 77 78 77 75 73 71 69 67 66 62 61 61 57 53 50 48 46 43 39 38 36 34 35 35 32 29 28 29 25
90 89 85 78 67 56 47 41 37 35 34 35 36 37 39 41 44 47 51 54 57 61 65 69 71 73 75 75 77 80 82 83 84 84 87 90 90 88 87 86 85 85 86 87 87 86 86 86 85 85 83 82 81 81 79 78 77 75 76 80 81 79 77 75 73 72 70 68 66 64 63 61 58 56 54 53 51 45 40 38 36 37 36 35 33 31 31 28
91 87 80 70 59 50 43 38 35 34 33 33 33 34 36 38 41 44 48 51 54 58 63 66 69 72 73 74 77 80 83 84 86 85 86 89 90 90 91 89 88 87 87 88 88 87 87 88 88 86 85 84 83 82 80 77 75 74 79 83 82 80 79 76 76 75 73 71 70 67 65 64 62 60 58 57 55 53 48 43 39 38 36 34 34 34 33 29
90 83 73 62 52 45 40 37 34 32 31 31 31 32 34 36 39 42 45 48 51 55 60 64 67 69 71 74 77 80 82 83 85 85 86 88 89 91 94 93 92 90 89 88 88 88 89 89 89 88 87 86 84 83 82 80 78 77 80 82 82 83 81 79 79 77 75 74 72 68 66 65 64 62 62 60 58 56 55 51 45 42 39 35 34 36 37 33
86 77 65 55 47 41 37 35 32 30 29 29 29 30 32 34 37 40 43 46 49 53 57 62 65 66 69 73 76 78 80 82 85 85 86 88 88 91 95 96 95 93 91 89 88 89 90 90 90 91 89 87 86 86 85 83 81 80 80 80 82 83 82 81 80 78 77 76 73 69 67 65 64 64 64 63 60 58 58 56 52 48 45 41 38 37 38 35
81 70 58 49 43 38 35 33 30 28 26 27 27 28 30 32 35 38 41 44 48 51 55 59 62 64 67 71 74 77 78 81 84 83 84 87 87 89 93 96 96 95 92 89 88 88 89 90 92 92 91 90 89 88 85 83 82 81 80 80 80 81 82 81 80 78 77 76 74 72 69 67 66 65 65 65 63 60 59 58 56 53 49 46 44 40 35 33
75 63 52 45 40 36 33 30 27 25 25 25 26 27 28 31 33 36 39 42 46 50 53 57 60 63 66 70 72 75 77 80 82 81 83 86 87 88 91 94 97 96 94 91 90 89 89 90 91 92 92 92 91 87 84 84 83 82 83 83 81 81 82 82 81 81 79 77 76 75 72 71 69 66 66 65 64 63 61 60 57 55 52 49 47 42 37 33
68 57 48 42 38 34 31 28 25 24 24 25 25 26 27 30 32 35 39 41 44 48 52 56 60 62 65 68 71 74 76 79 80 79 81 84 86 88 90 92 96 97 97 96 94 93 92 92 93 94 94 93 91 88 86 86 86 85 86 87 85 84 82 81 82 82 79 77 78 77 74 73 71 68 67 66 66 64 62 61 58 56 54 51 48 45 41 38
62 52 45 39 36 32 29 25 24 24 24 24 24 25 27 30 32 35 37 39 43 47 50 54 58 62 65 67 70 71 74 77 78 78 81 82 83 86 88 91 94 96 99 100 99 98 97 96 97 96 95 94 92 89 89 89 88 87 88 88 88 86 82 79 79 80 78 76 76 77 76 74 70 68 69 68 67 65 64 63 60 58 56 53 51 48 45 43
57 48 41 37 33 30 27 24 23 23 23 23 24 26 28 29 31 33 35 37 41 45 48 51 56 62 65 67 69 70 73 76 76 78 80 80 81 83 85 88 91 95 100 102 102 103 101 99 98 96 94 93 93 91 91 91 90 89 90 91 90 88 84 80 77 77 77 76 77 79 78 75 71 69 70 70 69 67 65 65 63 61 60 57 54 51 48 47
53 45 39 34 30 27 25 24 23 23 23 24 25 27 29 29 30 32 33 35 38 41 44 48 53 58 62 66 68 69 72 73 74 76 78 78 79 82 85 88 91 95 101 104 105 105 104 100 98 96 94 94 94 93 93 93 91 92 94 93 91 89 85 82 79 78 78 77 79 81 80 76 73 70 69 68 68 69 67 66 66 64 62 60 57 54 52 50
49 43 38 32 28 26 24 23 23 24 24 25 28 30 31 32 32 31 31 32 35 37 40 44 50 55 60 64 66 68 71 71 71 73 75 77 79 82 86 90 93 98 103 106 107 108 105 102 100 98 97 96 95 96 95 95 94 94 95 93 91 90 87 85 84 83 81 79 79 80 79 76 72 70 68 62 58 66 71 68 68 67 64 62 59 58 57 55
47 41 36 30 26 25 24 23 23 24 25 28 31 33 34 32 31 30 29 29 30 32 36 41 46 52 57 60 64 68 70 70 70 72 73 77 80 84 87 90 93 99 102 104 107 109 106 102 100 98 97 95 96 97 98 98 97 97 96 94 93 92 89 87 87 86 84 81 80 80 78 77 74 70 71 66 55 61 71 71 69 68 66 64 62 61 60 58
44 40 34 28 24 24 23 23 23 23 25 29 33 35 34 31 28 27 26 25 25 27 32 37 41 47 52 57 62 67 70 71 72 74 76 78 80 83 87 89 92 94 95 97 102 105 103 101 99 98 96 95 94 97 100 99 99 98 96 96 95 93 90 88 87 86 84 82 80 79 77 78 78 73 72 72 63 59 66 71 70 68 67 67 65 64 63 60
42 38 32 26 23 22 23 24 25 25 27 31 34 35 34 31 26 23 21 20 20 23 27 31 35 41 47 53 59 64 69 73 73 74 76 76 77 80 83 85 87 86 86 89 93 96 99 100 100 99 98 97 95 96 99 99 98 98 97 96 96 94 91 88 87 86 85 84 83 80 74 73 76 72 69 72 71 65 64 67 69 68 67 68 68 66 65 62
40 36 30 25 22 22 23 24 25 27 30 33 35 36 35 31 26 21 18 16 16 19 23 26 30 36 42 48 53 58 66 71 73 73 74 75 77 78 78 79 80 79 80 83 86 90 94 98 101 101 101 100 96 95 97 98 98 100 99 98 97 95 93 90 89 88 87 88 88 85 78 73 71 69 65 67 72 73 69 67 69 71 69 68 67 66 65 63
38 33 28 24 22 22 22 23 24 27 31 35 37 37 35 32 27 21 17 14 14 15 18 22 25 30 36 41 47 52 59 66 71 74 76 78 78 77 76 76 77 77 79 83 86 89 92 95 99 103 105 103 98 95 95 97 98 100 101 99 98 95 93 91 90 89 88 90 91 89 86 81 72 68 69 69 70 71 71 68 66 69 72 71 69 66 66 65
36 31 26 23 22 21 21 21 23 27 31 35 38 38 35 31 26 20 16 13 11 12 14 17 20 24 29 34 40 46 52 59 67 73 77 80 80 79 77 76 76 77 80 83 85 87 89 91 94 99 103 102 99 96 95 96 98 99 99 98 97 96 95 93 92 93 92 93 93 92 90 85 77 70 69 69 68 69 72 72 68 67 70 72 68 64 64 64
35 30 25 22 21 21 21 21 23 27 32 36 38 38 36 32 26 20 16 13 10 9 11 13 15 18 22 27 33 39 44 52 60 68 74 79 82 81 80 77 76 76 79 81 81 81 84 86 90 96 98 97 97 96 95 97 99 98 97 97 96 97 98 97 97 97 96 95 94 93 91 87 82 76 69 64 65 69 73 74 71 67 68 72 70 64 62 62
33 28 24 22 21 20 20 21 24 28 33 37 39 40 38 34 28 22 18 14 11 8 9 9 11 14 18 21 26 32 38 45 53 60 67 75 81 83 83 80 76 77 79 80 79 80 82 85 88 92 95 95 96 96 95 97 100 98 96 94 94 97 100 100 100 100 100 98 95 94 92 89 86 83 77 68 66 70 71 72 73 67 64 71 75 71 66 65
31 27 23 21 20 19 20 22 24 28 33 37 40 42 41 37 31 24 20 16 11 8 8 8 9 12 15 17 22 28 33 39 46 53 60 68 77 82 84 83 80 79 79 79 80 81 83 85 86 89 93 96 97 98 98 99 101 99 95 94 95 98 102 104 103 103 104 102 97 94 93 91 87 86 84 80 77 75 73 73 75 71 64 65 71 72 70 68
29 25 22 21 20 18 19 21 24 27 33 37 40 43 43 39 34 27 21 17 12 9 8 7 9 11 11 14 18 23 28 34 40 47 54 60 69 77 81 84 83 82 80 79 80 81 82 83 84 86 90 93 94 96 98 99 99 98 95 93 96 101 105 106 105 105 106 105 101 97 94 91 88 88 89 88 86 83 79 76 76 76 71 66 66 68 68 68
28 24 21 20 19 17 18 21 24 27 32 36 40 43 44 41 37 30 23 19 13 9 7 7 9 10 10 11 15 19 24 29 34 40 46 52 60 68 76 81 84 84 82 80 80 81 80 81 82 84 87 89 89 92 95 96 96 97 96 95 99 104 105 104 104 105 107 106 102 100 96 92 89 91 92 93 92 90 85 80 77 77 76 73 69 67 66 66
26 22 21 20 18 17 18 21 24 27 31 35 39 42 43 42 39 33 26 21 15 10 7 7 8 9 9 10 13 16 20 24 29 34 39 44 52 60 67 75 81 84 84 83 82 82 81 82 83 84 87 89 90 92 94 95 94 95 95 96 100 105 106 105 106 106 107 105 103 99 96 92 90 90 92 93 95 94 88 84 81 78 77 76 73 70 68 67
25 21 20 19 17 16 18 22 24 27 31 35 38 41 43 42 39 35 28 22 17 12 8 6 6 8 8 8 11 14 17 20 24 29 33 38 44 51 58 65 73 80 85 86 86 84 84 84 84 85 86 87 88 91 93 94 92 91 91 94 101 106 106 106 107 108 108 107 103 99 95 93 91 91 93 92 92 91 89 87 85 82 80 79 77 74 72 70
23 20 19 18 17 16 19 22 24 27 30 33 37 40 42 41 38 35 29 24 19 14 9 6 6 6 7 8 10 13 16 18 21 25 29 33 38 44 51 57 64 73 80 86 88 88 87 86 84 85 85 85 86 88 91 91 91 90 93 97 103 105 104 102 104 106 106 105 103 99 97 95 92 92 95 95 92 90 89 90 89 87 84 83 80 79 76 74
22 20 18 17 16 17 20 23 25 27 29 32 36 39 40 40 37 34 29 24 20 16 11 7 6 7 8 9 11 13 15 17 19 21 24 28 33 38 43 49 56 63 71 80 86 90 89 86 85 85 86 86 87 86 85 87 88 89 92 96 100 101 100 100 103 106 104 101 100 99 98 96 95 95 96 96 95 93 91 91 91 91 90 87 84 81 80 77
22 19 18 16 16 17 20 23 25 27 29 31 35 37 39 38 36 32 28 23 20 17 13 9 6 7 9 10 11 13 15 17 18 19 21 23 28 32 37 42 48 55 62 71 80 87 90 88 87 86 86 87 87 85 84 86 87 88 91 93 95 98 100 100 102 105 103 100 98 99 98 97 98 98 97 98 99 98 96 94 93 93 93 91 88 85 82 80
Wind_Direction
282 277 274 272 269 266 261 257 251 246 242 241 241 240 239 236 232 229 228 228 228 227 227 226 225 224 223 222 222 221 220 219 219 217 216 215 213 211 211 213 213 213 212 210 209 209 209 206 204 203 201 201 201 201 202 204 207 209 210 210 216 225 221 220 220 196 172 180 194 196 205 197 197 206 204 206 207 181 155 161 57 47 44 38 39 35 37 38
291 285 279 275 271 268 265 261 257 251 246 242 240 239 239 237 235 232 229 228 228 228 227 226 226 225 224 223 223 222 222 220 220 219 218 216 214 212 211 212 213 213 212 211 209 209 209 206 205 203 200 200 201 202 203 204 207 210 210 208 213 219 220 223 223 199 180 190 205 201 188 181 192 206 210 211 207 196 177 165 98 59 50 44 42 37 36 37
295 292 288 283 277 272 267 264 260 257 251 246 241 238 237 237 236 234 231 229 228 228 227 227 226 226 225 224 223 223 223 222 221 220 219 217 215 214 212 212 213 213 213 212 210 209 209 207 206 204 201 200 201 202 203 204 207 211 211 210 216 219 220 226 222 199 185 198 212 203 180 178 191 207 214 212 203 195 171 153 105 73 53 46 44 37 33 34
294 291 289 287 284 279 273 268 263 260 256 251 245 240 237 236 235 235 234 231 228 227 227 227 227 226 225 225 224 223 223 223 222 221 220 218 217 215 214 213 213 213 213 213 212 211 209 208 207 205 202 200 201 203 204 206 208 211 212 211 215 215 219 225 219 198 185 202 215 200 186 192 202 201 209 213 206 207 179 159 139 93 56 45 46 37 30 31
299 292 287 284 282 280 278 274 269 263 259 255 251 245 240 236 234 234 234 233 230 227 226 227 227 227 226 225 225 224 223 223 224 222 220 219 218 216 215 215 214 213 213 213 213 212 210 208 207 206 203 201 201 203 205 206 208 211 211 211 213 213 220 223 214 199 186 200 211 199 194 205 208 202 214 219 205 210 189 172 165 121 55 45 44 36 26 26
308 301 294 287 282 278 276 274 272 269 264 259 255 250 245 240 236 234 233 233 231 228 226 226 226 227 227 226 225 225 224 224 224 223 221 220 219 218 216 216 216 215 214 214 214 214 212 209 208 206 204 202 202 203 205 207 209 211 211 211 213 215 223 219 209 201 190 192 200 200 203 203 201 203 206 202 211 214 191 190 215 209 41 43 42 32 22 19
314 309 303 296 288 281 275 271 269 268 266 263 259 255 250 245 240 235 233 232 232 230 227 225 225 226 226 226 226 225 224 225 224 223 223 221 220 219 218 217 217 216 215 214 215 215 214 211 209 207 205 204 203 204 205 206 209 212 212 212 211 213 220 217 208 203 194 187 184 189 201 197 192 192 187 193 218 216 192 242 285 245 246 32 39 25 17 13
317 315 311 305 298 289 281 274 269 265 264 263 261 258 254 250 245 240 235 233 231 230 228 226 225 224 225 226 226 226 225 226 225 222 222 222 220 219 218 218 218 217 217 215 215 215 215 213 210 208 207 206 204 205 206 207 209 211 212 212 211 213 218 217 211 205 199 193 187 183 188 192 189 186 190 196 207 212 220 289 296 260 251 316 28 13 11 11
316 314 313 310 307 300 291 282 274 267 263 260 259 258 256 253 249 245 240 236 233 230 228 227 225 224 224 224 225 226 225 226 226 222 222 222 221 221 219 218 217 218 217 216 215 215 216 215 212 210 208 208 207 207 207 208 209 211 212 212 213 214 217 218 214 209 205 204 202 194 187 189 193 190 195 202 202 216 244 274 287 264 257 294 355 356 3 11
315 312 310 308 307 305 300 293 283 274 266 261 258 255 254 254 252 248 244 240 236 232 229 227 226 224 223 223 223 224 225 227 227 223 222 222 221 222 221 219 218 217 217 217 216 216 216 215 214 212 210 211 210 208 207 207 208 210 211 212 212 213 215 216 215 214 210 209 209 205 197 190 192 192 193 201 201 217 236 248 269 266 274 304 313 326 358 9
315 312 309 306 304 302 300 297 292 283 274 265 259 255 252 251 250 249 247 244 240 236 232 228 226 225 223 222 222 222 224 227 227 224 222 223 221 221 221 220 219 218 218 217 217 216 216 215 215 214 212 213 212 208 207 208 209 210 211 212 212 212 214 214 214 216 214 212 211 209 203 192 188 186 188 196 200 215 230 234 250 260 283 300 295 302 349 357
317 314 310 307 304 301 298 296 294 290 282 272 264 257 253 249 247 247 246 245 242 239 236 231 228 225 224 223 221 222 224 226 227 225 223 224 223 221 221 221 220 219 218 218 217 217 217 215 215 215 214 215 213 210 211 211 211 212 212 212 211 212 216 215 213 217 218 215 213 211 209 200 190 184 185 191 198 209 219 226 237 248 272 288 289 301 324 339
320 317 314 310 306 303 299 296 292 290 286 279 270 261 255 251 247 244 244 243 242 241 239 235 231 227 225 223 221 222 224 224 226 225 223 224 224 222 222 221 221 220 219 218 217 217 217 216 215 214 215 216 214 214 214 212 211 212 212 210 209 210 214 215 212 215 219 216 215 215 216 214 205 197 191 190 196 206 213 222 231 240 258 276 290 298 306 323
323 321 318 315 311 306 301 297 293 289 286 282 274 266 259 253 248 245 242 241 240 240 239 237 235 231 227 224 222 223 224 222 225 225 224 224 224 223 222 222 221 220 219 219 218 217 217 217 216 214 215 217 215 215 214 212 211 211 212 210 208 208 210 212 212 214 217 217 217 218 221 222 218 212 207 204 207 215 220 227 231 239 251 267 286 292 296 315
324 322 320 317 314 310 305 300 294 289 285 282 277 269 262 255 250 246 242 240 238 238 238 237 236 233 230 226 223 224 223 222 223 224 223 224 224 224 223 222 221 220 219 219 219 218 217 217 217 215 216 216 215 216 214 212 212 212 213 211 208 209 210 211 212 215 217 218 219 220 223 225 223 221 220 221 224 230 233 236 238 244 252 264 280 283 286 309
324 322 321 318 316 312 307 303 297 291 285 281 278 271 263 257 252 247 244 240 238 236 235 235 235 234 232 229 226 224 222 221 222 222 222 223 224 224 224 223 222 221 219 219 219 219 218 217 217 217 217 216 215 217 216 213 214 215 214 213 210 211 214 213 213 216 217 218 220 221 222 225 225 224 227 230 233 237 241 242 243 247 254 263 275 274 279 305
324 323 321 319 316 313 309 304 300 294 288 282 277 271 263 257 252 248 244 241 238 235 234 233 233 233 232 230 229 226 222 222 222 222 222 222 223 224 224 224 223 222 220 219 219 219 218 218 217 217 218 216 216 218 217 215 217 217 216 214 213 213 216 216 215 217 217 218 221 221 222 223 224 225 228 232 236 241 242 242 243 246 253 263 270 269 278 312
325 324 322 320 318 315 311 306 301 296 290 284 278 270 262 255 251 248 245 242 239 236 234 232 231 231 231 230 230 228 224 222 223 222 221 221 222 223 224 224 224 223 221 220 219 219 218 219 218 218 218 217 217 218 217 216 217 218 217 215 215 215 216 217 216 217 217 218 221 222 223 223 221 223 226 230 237 241 238 236 237 238 247 260 265 264 274 309
325 324 324 322 319 317 313 308 302 297 291 285 279 269 260 253 248 246 244 242 239 237 234 232 231 230 229 229 229 228 226 223 223 222 221 221 221 222 223 224 224 223 222 221 220 219 218 219 219 219 218 217 218 219 217 216 217 217 217 216 216 215 215 216 216 217 219 219 221 223 226 225 220 221 225 230 234 232 227 229 232 232 240 251 257 261 267 297
325 324 324 323 321 319 315 310 304 297 291 284 277 268 259 251 246 243 242 242 239 237 235 232 231 230 229 229 229 229 228 225 225 223 221 220 221 221 222 223 223 224 223 222 221 220 219 219 219 219 219 218 217 219 217 216 217 218 218 218 218 217 216 215 216 218 219 218 221 223 225 226 223 220 224 228 228 223 224 232 236 235 236 242 250 255 259 281
325 325 324 324 323 321 317 311 304 297 290 282 274 265 257 250 245 242 241 240 239 237 235 233 231 230 228 228 228 227 227 226 225 224 222 220 220 221 221 221 222 223 223 223 222 221 220 219 219 220 220 219 218 218 217 215 217 217 218 219 220 220 217 216 218 219 219 217 220 223 223 226 225 221 223 228 229 226 227 235 243 237 228 231 242 247 254 268
326 325 325 324 323 321 317 311 304 296 287 278 270 262 256 250 246 243 240 239 238 237 236 234 232 230 228 228 227 226 226 225 224 224 222 220 220 220 220 220 221 221 222 223 222 222 221 219 219 220 220 220 220 219 217 216 216 217 218 219 220 221 218 218 221 221 221 219 220 222 222 223 224 222 224 228 230 230 229 235 242 236 225 227 235 241 251 261
326 326 325 324 323 321 317 311 303 294 285 276 268 261 256 251 247 243 241 239 237 236 235 234 232 230 228 227 227 226 226 225 224 223 223 222 221 220 220 220 220 220 221 222 222 222 221 220 220 220 220 220 221 221 218 216 216 217 218 219 220 221 219 219 222 222 222 222 222 224 223 221 221 221 222 225 230 234 236 237 236 234 231 231 235 240 247 251
327 326 325 324 323 321 316 309 301 292 283 275 268 262 256 251 248 244 241 238 237 235 234 233 232 230 229 227 227 227 226 226 226 224 224 223 221 220 220 220 220 220 221 221 222 222 221 221 220 220 220 219 220 221 220 217 216 217 218 220 220 220 219 219 221 222 222 222 222 224 224 221 220 219 220 223 228 232 235 233 230 233 234 234 237 239 242 243
327 326 325 324 323 320 315 308 300 291 283 276 269 263 257 251 247 244 241 238 236 235 233 232 232 230 229 227 226 227 227 226 226 224 224 224 222 220 219 220 220 220 220 220 221 221 221 221 221 221 220 220 220 221 220 219 217 216 218 220 221 220 219 219 220 221 222 221 221 223 223 221 220 219 220 223 225 227 230 230 227 231 234 235 237 240 240 239
327 326 325 325 323 320 314 307 298 290 283 276 270 264 258 252 247 243 240 238 236 235 233 231 231 230 228 227 226 227 226 226 225 224 223 223 222 220 220 219 219 219 220 220 220 220 220 221 222 221 221 220 220 221 221 220 218 217 219 220 220 220 219 219 220 221 221 221 221 221 222 221 220 220 221 223 226 227 231 230 227 230 234 234 234 239 239 236
328 327 326 325 323 319 313 306 298 290 283 275 268 262 256 251 247 243 240 237 235 235 234 231 230 229 228 227 226 227 226 225 225 224 224 224 222 221 220 220 219 219 219 219 219 219 220 221 222 222 221 220 220 221 221 220 219 218 220 220 220 220 220 219 221 221 221 222 221 220 220 221 221 221 222 224 226 228 231 232 231 230 232 232 232 235 236 237
328 328 327 325 322 318 312 305 298 290 283 275 267 261 255 250 247 244 242 239 236 235 235 233 230 229 228 228 227 227 226 226 226 224 224 224 222 221 220 219 219 219 219 219 218 218 219 220 221 222 222 221 220 221 221 220 219 219 221 221 220 220 219 219 220 221 221 222 223 221 220 221 221 222 224 225 226 227 229 232 232 231 230 231 233 236 238 241
329 329 328 325 322 317 311 305 298 290 281 273 267 262 257 253 249 245 242 240 238 237 235 234 231 229 228 228 228 227 227 226 226 224 224 225 223 221 221 220 220 220 219 219 218 218 219 219 220 221 222 221 220 221 220 219 219 219 221 222 222 221 220 220 220 221 222 223 223 222 222 222 223 223 224 226 227 227 229 231 233 233 232 231 233 237 239 241
330 330 328 325 321 316 310 305 298 290 281 275 271 267 263 258 253 248 243 240 239 238 236 235 233 230 228 228 227 227 227 227 226 224 224 225 223 222 222 221 220 220 220 219 219 219 219 220 220 221 221 221 221 221 220 220 220 220 221 223 223 222 221 220 221 221 223 224 224 223 222 222 223 225 226 228 228 228 230 232 233 234 233 232 233 235 237 238
331 330 328 324 320 316 311 305 298 290 284 280 277 272 268 262 257 253 247 242 239 237 236 235 234 232 229 227 227 227 226 226 226 225 224 225 223 222 221 221 220 220 219 219 219 219 219 220 220 221 220 221 221 221 220 221 220 220 221 223 223 223 221 220 220 220 221 223 224 224 223 223 222 224 227 229 229 230 231 232 233 234 235 235 234 231 233 239
331 330 328 324 321 316 312 307 300 294 290 287 283 277 272 267 262 258 253 248 243 239 236 234 234 233 231 228 227 226 226 226 225 224 224 224 224 222 221 220 220 219 219 218 218 219 219 219 220 220 219 220 220 220 220 221 220 220 221 222 223 223 222 221 220 220 221 223 225 224 224 223 222 223 226 228 229 231 232 233 234 235 236 236 235 233 235 239
332 330 328 325 321 316 313 308 302 298 296 293 288 282 277 273 269 264 259 254 248 242 237 234 233 233 232 230 228 226 226 225 223 223 223 223 223 222 221 220 219 219 219 218 217 217 218 218 219 218 218 219 219 219 220 221 220 221 222 222 223 223 222 221 221 221 220 223 225 225 224 223 222 223 225 227 229 230 231 232 234 235 236 237 238 238 237 237
332 330 328 325 321 316 314 310 305 303 302 298 293 290 286 282 276 271 265 259 251 244 239 235 233 232 231 231 229 227 226 225 223 222 222 222 221 221 221 219 218 218 218 218 218 218 217 218 219 218 217 218 218 218 219 220 220 221 222 222 223 223 222 221 222 222 221 222 224 224 224 223 222 223 225 228 229 229 230 231 233 234 235 237 239 240 238 235
332 330 328 326 321 317 314 312 311 311 308 304 302 301 298 295 289 280 270 262 254 247 241 236 233 232 230 230 229 228 227 225 223 223 222 221 220 220 219 218 216 217 217 217 217 217 217 217 218 218 217 217 217 217 218 219 220 221 222 222 223 223 222 221 221 221 221 222 224 224 222 222 222 223 225 228 230 231 230 231 232 233 234 235 236 237 237 235
332 331 330 327 321 317 316 316 318 317 315 313 313 312 309 306 299 289 276 264 255 247 242 236 232 231 229 228 228 228 228 226 223 223 222 221 219 219 219 218 217 217 217 216 216 216 216 217 218 218 217 216 216 216 217 218 219 221 222 223 223 223 222 220 220 221 221 222 224 224 223 222 223 222 224 225 228 230 231 231 231 232 233 234 234 235 236 237
332 331 330 327 321 320 321 322 323 322 321 321 320 319 315 310 304 294 281 268 257 247 240 234 230 228 227 226 225 225 226 225 223 222 222 220 219 219 219 219 219 219 218 217 217 216 216 216 218 218 218 217 217 217 217 217 218 220 221 222 223 223 222 221 221 222 222 222 223 224 223 222 222 222 222 221 223 228 229 230 232 232 233 234 235 235 235 237
332 331 331 327 323 322 323 325 326 325 326 326 324 322 319 316 309 297 284 270 258 246 238 233 228 227 226 224 222 222 223 223 222 221 220 220 220 220 220 220 220 221 220 219 219 217 216 216 217 218 218 218 219 219 219 217 217 219 220 221 222 223 223 222 222 223 223 223 224 225 224 223 222 222 223 222 223 228 230 229 231 232 233 234 234 235 235 237
332 331 330 327 324 325 328 329 329 329 330 329 328 328 325 322 316 303 288 274 259 246 237 232 227 225 224 223 222 220 219 221 222 222 221 221 221 221 222 222 222 222 221 221 220 218 217 217 217 216 217 217 218 220 221 219 218 218 219 221 222 223 222 222 222 223 223 223 224 224 224 224 223 222 224 226 225 227 230 231 230 230 231 232 233 233 235 236
332 331 330 327 327 330 332 331 330 331 333 334 334 335 333 330 325 314 300 283 263 246 237 230 225 222 222 222 222 220 218 219 221 222 222 222 222 222 221 222 222 221 220 220 219 218 218 217 216 215 216 216 216 218 221 220 219 219 218 219 221 222 222 222 221 222 222 222 223 222 221 222 221 220 221 226 228 227 228 230 230 228 229 230 232 232 233 234
333 331 329 328 330 333 333 332 331 334 336 338 340 341 340 338 332 323 312 295 271 250 238 230 225 222 220 220 220 219 218 217 218 219 220 221 222 222 220 220 219 219 218 218 217 216 217 217 217 216 216 215 215 216 219 220 220 220 219 219 220 221 222 222 222 222 222 222 223 222 221 220 219 217 216 221 225 225 225 228 229 228 228 230 231 232 232 233
334 331 329 329 331 333 334 334 334 336 339 342 345 346 346 344 339 331 324 309 282 258 243 233 227 223 220 218 218 218 218 217 216 216 217 219 221 221 221 219 218 216 217 218 217 217 217 217 218 217 217 216 216 215 218 219 220 220 220 220 220 221 221 221 222 222 222 222 222 222 222 220 218 216 215 219 223 223 223 226 228 229 228 228 229 230 230 231
334 331 330 331 333 333 335 336 336 339 342 346 349 351 351 351 348 341 336 322 297 271 254 241 232 226 221 218 216 215 216 217 217 216 215 217 219 221 220 220 218 217 217 218 217 218 218 218 218 218 217 217 217 216 217 219 220 220 220 220 220 221 221 221 221 222 222 223 223 222 222 221 219 217 216 218 224 224 223 224 226 228 228 227 227 227 227 227
334 331 331 333 334 334 335 337 340 343 345 349 353 355 356 356 355 351 346 335 313 289 271 253 238 229 222 218 216 213 212 215 217 216 215 215 217 219 219 219 218 217 217 217 216 216 217 217 218 217 216 216 216 216 216 219 220 219 219 219 220 221 222 222 221 222 222 223 223 222 222 220 219 219 217 216 220 222 222 222 223 224 226 227 227 227 226 226
334 332 332 333 335 336 335 337 341 345 347 351 356 359 359 359 359 357 354 345 326 307 288 266 246 233 222 217 218 214 211 213 215 216 216 215 216 217 218 218 218 217 217 216 216 216 216 216 217 217 216 216 216 215 215 217 219 219 218 219 219 220 221 221 221 222 223 223 222 222 221 220 219 219 220 219 221 222 221 222 223 223 224 225 226 227 228 228
334 333 333 334 336 336 335 337 343 346 348 352 358 0 0 0 1 1 359 353 336 316 298 276 257 244 225 215 218 218 214 213 213 215 215 215 216 217 217 218 218 218 217 216 216 217 217 217 217 217 217 217 216 216 216 217 219 219 218 218 219 220 221 221 221 222 224 224 223 222 222 221 219 219 220 220 222 223 223 224 225 225 225 226 226 227 228 229
335 333 334 335 336 335 336 340 344 346 349 353 358 1 1 1 1 1 2 359 346 322 297 278 262 253 237 218 219 220 218 215 214 215 215 215 216 217 217 217 217 218 218 217 217 217 217 218 218 218 218 217 217 217 216 217 218 218 217 217 220 221 221 221 221 222 224 225 224 223 222 221 220 221 221 221 222 223 222 223 225 225 226 226 227 227 227 228
336 335 333 334 335 336 338 342 345 347 349 354 359 1 1 1 1 0 1 1 355 335 301 278 263 257 246 227 222 222 221 219 216 215 214 215 216 217 218 217 217 217 217 217 217 217 217 217 218 219 218 217 217 216 216 216 217 218 218 218 221 222 221 221 222 222 223 224 224 224 223 222 221 222 224 224 225 225 224 223 224 225 226 227 227 227 227 227
337 336 333 332 335 337 341 344 347 347 350 354 358 0 1 1 0 359 359 0 359 347 318 284 264 260 252 235 227 226 225 223 220 217 213 213 215 216 217 218 217 217 217 216 216 217 217 217 217 219 220 219 218 216 216 215 216 217 217 219 221 222 221 221 223 223 223 224 223 223 223 222 222 223 224 225 227 228 227 225 226 227 228 228 227 227 227 227
338 336 332 332 336 339 341 345 347 348 350 354 357 359 360 360 360 358 357 357 359 357 338 301 265 250 246 238 229 228 228 226 224 221 215 212 214 215 216 217 217 216 217 216 216 216 217 218 217 219 221 221 220 218 216 216 216 217 218 219 221 222 221 221 223 224 224 224 224 222 222 222 221 222 224 225 226 227 227 226 227 227 228 228 227 227 227 227
339 335 331 333 338 340 342 346 348 350 351 353 356 358 359 358 358 358 357 356 356 357 353 324 277 246 236 233 228 227 230 230 229 227 221 215 214 215 216 217 216 216 216 217 217 217 218 218 218 219 221 222 222 220 218 217 217 218 219 221 222 222 221 221 223 225 224 225 225 224 223 223 222 222 224 225 226 226 226 227 227 227 227 227 226 227 227 227
338 334 331 333 338 341 343 346 349 350 351 352 355 357 357 357 356 355 356 356 354 353 354 345 305 261 240 231 225 224 227 231 234 233 228 221 216 216 217 217 217 216 215 216 216 217 217 218 218 219 221 222 222 221 218 218 218 218 220 221 222 221 221 221 223 225 224 223 224 225 224 223 223 223 224 225 226 226 226 227 227 227 228 227 226 226 226 227
Height
10910 10909 10909 10909 10909 10909 10909 10910 10910 10911 10913 10914 10916 10918 10920 10921 10923 10925 10927 10929 10931 10933 10935 10937 10940 10942 10945 10947 10949 10951 10953 10955 10957 10960 10964 10966 10970 10974 10977 10979 10981 10983 10986 10988 10991 10993 10996 10999 11001 11003 11005 11007 11009 11011 11012 11013 11015 11016 11017 11019 11021 11022 11023 11023 11026 11029 11030 11030 11029 11029 11031 11033 11033 11034 11035 11035 11035 11035 11035 11035 11035 11034 11035 11035 11035 11034 11033 11031
10908 10907 10906 10906 10906 10906 10906 10906 10906 10907 10907 10909 10910 10912 10914 10916 10918 10920 10922 10924 10926 10928 10930 10932 10935 10938 10940 10943 10945 10947 10949 10950 10953 10956 10959 10962 10967 10970 10973 10975 10977 10980 10982 10985 10988 10990 10992 10995 10997 10999 11002 11005 11007 11009 11010 11012 11014 11015 11016 11018 11020 11021 11022 11022 11024 11028 11029 11029 11029 11029 11031 11032 11033 11034 11035 11035 11035 11035 11035 11035 11035 11034 11035 11035 11035 11034 11033 11032
10906 10905 10904 10903 10903 10902 10902 10902 10902 10902 10903 10903 10905 10906 10908 10910 10912 10914 10916 10919 10921 10923 10925 10927 10930 10932 10935 10938 10940 10942 10944 10946 10950 10952 10954 10958 10963 10966 10969 10971 10973 10976 10979 10982 10984 10986 10989 10991 10994 10997 11000 11002 11005 11007 11009 11010 11012 11013 11014 11017 11019 11020 11021 11021 11023 11026 11028 11028 11028 11029 11031 11032 11034 11035 11035 11035 11035 11035 11035 11035 11035 11035 11034 11035 11035 11035 11034 11032
10902 10902 10901 10900 10900 10899 10898 10898 10898 10898 10898 10899 10900 10901 10902 10904 10906 10908 10910 10912 10915 10917 10920 10922 10924 10927 10930 10932 10935 10938 10940 10943 10945 10946 10949 10955 10958 10961 10965 10967 10969 10972 10975 10978 10980 10983 10985 10988 10992 10995 10998 11001 11003 11005 11007 11009 11010 11011 11013 11015 11018 11019 11020 11021 11022 11025 11027 11027 11028 11029 11031 11032 11033 11035 11035 11035 11035 11035 11035 11035 11035 11035 11035 11035 11035 11035 11034 11033
10899 10898 10897 10897 10896 10895 10895 10894 10894 10893 10893 10894 10894 10896 10896 10898 10900 10902 10904 10906 10908 10911 10914 10916 10919 10921 10924 10927 10930 10932 10936 10938 10939 10941 10946 10949 10952 10956 10960 10962 10965 10968 10971 10974 10976 10979 10982 10985 10989 10992 10995 10998 11000 11002 11004 11006 11008 11009 11011 11013 11016 11018 11019 11019 11021 11024 11025 11026 11028 11029 11030 11031 11033 11034 11034 11035 11034 11034 11035 11034 11034 11035 11035 11035 11035 11035 11035 11034
10896 10895 10894 10893 10892 10891 10891 10890 10889 10889 10888 10888 10889 10890 10891 10892 10894 10895 10897 10899 10901 10904 10907 10910 10913 10916 10918 10921 10924 10927 10931 10931 10932 10937 10942 10945 10948 10952 10955 10957 10960 10964 10967 10969 10972 10976 10979 10982 10985 10988 10992 10995 10997 10999 11001 11003 11005 11006 11008 11011 11014 11016 11016 11018 11020 11022 11024 11026 11027 11028 11030 11031 11032 11033 11033 11034 11034 11034 11034 11034 11034 11035 11036 11035 11035 11035 11035 11035
10893 10891 10890 10889 10887 10887 10886 10885 10885 10884 10883 10883 10883 10884 10885 10887 10888 10889 10891 10892 10894 10897 10900 10903 10906 10910 10912 10915 10919 10922 10925 10925 10927 10934 10937 10940 10944 10947 10950 10953 10956 10959 10962 10966 10969 10972 10976 10979 10982 10985 10988 10991 10994 10996 10998 11000 11002 11004 11006 11008 11011 11013 11013 11016 11018 11020 11022 11025 11027 11028 11029 11030 11032 11032 11033 11033 11034 11034 11034 11034 11034 11035 11036 11035 11035 11035 11035 11035
10889 10887 10886 10884 10883 10882 10881 10880 10879 10878 10878 10877 10877 10878 10879 10880 10882 10884 10885 10886 10887 10889 10893 10896 10899 10903 10906 10910 10913 10915 10919 10919 10921 10927 10930 10934 10938 10941 10944 10947 10951 10955 10958 10962 10965 10969 10972 10976 10979 10982 10985 10988 10991 10994 10996 10997 10999 11001 11003 11006 11009 11010 11011 11014 11017 11018 11021 11023 11025 11027 11028 11029 11030 11031 11032 11033 11034 11034 11033 11034 11034 11035 11035 11035 11035 11035 11035 11035
10885 10883 10881 10879 10878 10876 10875 10874 10873 10873 10872 10871 10871 10872 10872 10873 10875 10877 10879 10880 10881 10883 10886 10889 10892 10896 10899 10903 10906 10910 10914 10911 10912 10921 10926 10928 10932 10935 10938 10941 10945 10949 10953 10958 10961 10964 10968 10971 10975 10978 10982 10985 10988 10990 10992 10993 10996 10998 11001 11004 11006 11007 11010 11013 11015 11017 11019 11021 11023 11025 11027 11028 11030 11031 11031 11032 11033 11034 11033 11034 11034 11035 11035 11035 11035 11036 11035 11035
10880 10878 10876 10874 10872 10870 10869 10868 10867 10866 10865 10864 10864 10865 10865 10866 10867 10869 10871 10873 10875 10876 10879 10881 10885 10888 10892 10896 10900 10905 10906 10901 10906 10916 10919 10921 10926 10929 10933 10936 10940 10943 10947 10951 10955 10959 10962 10967 10971 10975 10978 10981 10982 10984 10987 10990 10992 10995 10998 11001 11003 11005 11008 11011 11013 11015 11017 11019 11021 11024 11026 11027 11029 11030 11030 11030 11031 11033 11033 11033 11034 11035 11036 11036 11036 11036 11035 11035
10874 10872 10870 10869 10867 10864 10863 10861 10860 10859 10857 10857 10856 10857 10858 10858 10860 10861 10863 10866 10867 10870 10872 10875 10877 10881 10885 10888 10893 10897 10896 10895 10901 10908 10911 10914 10919 10923 10927 10931 10934 10938 10941 10946 10950 10954 10957 10963 10967 10971 10975 10976 10976 10980 10985 10988 10990 10992 10995 10998 11000 11002 11005 11008 11010 11012 11014 11016 11019 11021 11024 11025 11027 11028 11029 11029 11030 11031 11032 11033 11034 11035 11035 11036 11036 11036 11036 11036
10869 10866 10864 10862 10860 10858 10856 10854 10853 10851 10849 10848 10848 10848 10849 10850 10852 10853 10855 10857 10859 10862 10864 10868 10871 10874 10877 10880 10886 10888 10888 10890 10893 10899 10906 10909 10913 10918 10921 10925 10929 10933 10936 10940 10945 10949 10953 10958 10962 10966 10970 10970 10973 10979 10982 10984 10986 10988 10991 10994 10997 11000 11002 11004 11007 11008 11010 11013 11016 11018 11021 11023 11024 11026 11028 11029 11029 11030 11031 11033 11033 11034 11035 11036 11036 11036 11036 11036
10863 10860 10857 10855 10853 10851 10849 10846 10845 10843 10841 10839 10839 10839 10840 10841 10842 10844 10846 10848 10851 10854 10856 10860 10863 10867 10870 10873 10878 10879 10878 10883 10885 10892 10901 10903 10906 10911 10914 10919 10924 10928 10932 10935 10939 10943 10947 10953 10956 10961 10964 10965 10970 10974 10975 10977 10981 10983 10986 10990 10995 10998 11000 11001 11005 11006 11007 11010 11013 11015 11017 11019 11022 11024 11026 11028 11028 11029 11031 11031 11032 11033 11034 11035 11035 11036 11036 11036
10856 10853 10850 10847 10845 10842 10840 10838 10836 10834 10832 10830 10830 10830 10830 10831 10832 10834 10836 10839 10842 10845 10848 10851 10854 10859 10862 10865 10870 10869 10871 10878 10880 10886 10893 10896 10899 10903 10907 10912 10917 10922 10926 10930 10934 10937 10942 10946 10950 10955 10958 10959 10964 10967 10967 10971 10975 10978 10982 10987 10991 10994 10998 11000 11002 11003 11004 11008 11010 11012 11014 11017 11020 11023 11024 11026 11027 11028 11029 11030 11031 11032 11033 11034 11035 11035 11036 11036
10850 10846 10843 10839 10837 10834 10831 10829 10826 10824 10822 10820 10820 10820 10820 10821 10822 10824 10826 10829 10832 10835 10839 10842 10846 10850 10853 10857 10860 10859 10865 10871 10871 10877 10885 10888 10892 10896 10900 10905 10909 10915 10920 10924 10928 10932 10936 10939 10943 10949 10950 10952 10959 10960 10962 10968 10972 10976 10979 10983 10987 10991 10995 10997 10998 11000 11002 11005 11007 11010 11012 11015 11018 11020 11022 11024 11025 11027 11028 11029 11030 11031 11032 11033 11034 11035 11036 11036
10843 10839 10835 10831 10828 10824 10821 10818 10815 10814 10812 10810 10809 10809 10809 10809 10811 10812 10815 10818 10821 10825 10829 10832 10836 10839 10843 10848 10849 10850 10858 10862 10864 10871 10877 10880 10884 10888 10893 10898 10902 10908 10913 10918 10922 10925 10930 10933 10938 10942 10942 10947 10954 10955 10959 10966 10970 10973 10975 10978 10983 10986 10990 10992 10994 10996 10999 11002 11004 11007 11010 11013 11015 11018 11020 11022 11024 11025 11027 11028 11028 11030 11031 11032 11034 11035 11035 11035
10835 10830 10826 10822 10818 10814 10811 10808 10804 10802 10800 10799 10798 10797 10797 10798 10799 10801 10803 10806 10809 10814 10818 10822 10826 10829 10833 10837 10839 10844 10853 10857 10859 10864 10869 10873 10877 10881 10886 10890 10895 10900 10906 10911 10915 10920 10925 10928 10930 10932 10935 10943 10948 10950 10956 10963 10965 10968 10971 10974 10978 10981 10985 10989 10990 10992 10996 10999 11001 11004 11007 11010 11013 11016 11019 11020 11022 11024 11026 11027 11027 11028 11030 11031 11033 11034 11035 11035
10827 10821 10816 10812 10808 10804 10800 10796 10793 10790 10788 10787 10786 10786 10785 10786 10787 10788 10791 10794 10798 10803 10807 10811 10814 10818 10823 10827 10831 10837 10845 10849 10851 10855 10860 10865 10869 10873 10877 10882 10887 10892 10898 10904 10909 10914 10919 10919 10921 10927 10933 10940 10945 10947 10952 10957 10959 10962 10965 10969 10973 10976 10980 10983 10986 10989 10993 10996 10998 11001 11004 11007 11011 11014 11016 11018 11021 11023 11024 11025 11026 11027 11028 11030 11032 11034 11035 11036
10817 10812 10806 10801 10796 10792 10788 10784 10781 10778 10775 10774 10773 10773 10773 10774 10775 10776 10779 10782 10786 10791 10794 10798 10802 10808 10813 10816 10821 10827 10835 10841 10841 10845 10851 10857 10862 10866 10870 10875 10880 10885 10891 10897 10902 10907 10910 10912 10918 10925 10929 10935 10938 10939 10945 10951 10954 10957 10960 10964 10967 10971 10976 10979 10982 10986 10989 10993 10995 10998 11001 11004 11008 11011 11014 11016 11019 11021 11022 11023 11025 11026 11027 11028 11031 11033 11035 11035
10808 10802 10796 10790 10784 10780 10775 10772 10768 10765 10762 10760 10760 10760 10761 10762 10762 10764 10767 10770 10774 10778 10781 10786 10791 10796 10802 10808 10815 10821 10828 10833 10832 10836 10844 10851 10855 10857 10861 10867 10872 10877 10883 10889 10893 10898 10902 10908 10916 10920 10921 10926 10928 10930 10938 10945 10949 10952 10956 10960 10963 10967 10971 10975 10979 10982 10985 10990 10992 10995 10998 11001 11005 11009 11012 11014 11017 11019 11020 11022 11023 11024 11026 11027 11030 11032 11034 11035
10798 10792 10785 10779 10773 10767 10762 10758 10755 10752 10750 10748 10747 10748 10748 10749 10750 10752 10756 10758 10762 10765 10769 10775 10779 10784 10792 10799 10806 10812 10818 10820 10821 10828 10835 10841 10843 10845 10852 10858 10863 10869 10875 10880 10885 10890 10897 10904 10910 10912 10912 10917 10920 10924 10933 10940 10942 10946 10950 10954 10958 10962 10967 10973 10977 10978 10982 10987 10990 10992 10995 10998 11002 11006 11009 11011 11014 11017 11018 11020 11022 11023 11024 11026 11028 11031 11033 11033
10788 10781 10774 10768 10761 10755 10750 10745 10742 10739 10737 10736 10736 10736 10737 10738 10738 10741 10744 10747 10751 10754 10758 10764 10767 10774 10782 10789 10795 10801 10805 10806 10809 10817 10824 10829 10832 10836 10844 10849 10855 10860 10865 10871 10877 10884 10892 10898 10902 10903 10905 10911 10915 10918 10926 10933 10936 10940 10944 10947 10951 10956 10964 10972 10973 10974 10979 10984 10987 10989 10991 10995 10999 11003 11006 11008 11011 11014 11016 11018 11020 11021 11022 11024 11027 11030 11031 11033
10777 10770 10763 10757 10749 10743 10737 10733 10730 10727 10726 10725 10725 10725 10726 10727 10728 10730 10733 10736 10740 10743 10748 10752 10757 10763 10771 10778 10783 10787 10791 10794 10799 10808 10813 10818 10823 10830 10837 10842 10847 10852 10856 10864 10869 10876 10884 10889 10892 10893 10898 10905 10909 10912 10919 10926 10931 10935 10939 10942 10946 10951 10959 10965 10966 10969 10975 10980 10985 10987 10989 10993 10997 11000 11003 11006 11010 11011 11012 11015 11017 11018 11020 11023 11025 11028 11030 11031
10766 10759 10752 10745 10738 10731 10726 10722 10719 10717 10716 10715 10715 10715 10716 10717 10718 10720 10722 10726 10729 10733 10737 10741 10745 10752 10759 10766 10771 10775 10781 10786 10792 10801 10805 10808 10814 10822 10829 10834 10840 10844 10849 10856 10861 10869 10876 10879 10882 10885 10890 10898 10901 10905 10912 10920 10925 10930 10934 10937 10940 10945 10952 10957 10959 10964 10968 10974 10981 10984 10985 10990 10994 10996 10999 11003 11006 11005 11007 11011 11014 11016 11018 11021 11023 11025 11028 11030
10756 10748 10740 10732 10726 10720 10715 10712 10709 10707 10706 10705 10705 10705 10706 10707 10708 10710 10712 10715 10719 10723 10727 10730 10734 10741 10746 10754 10760 10764 10771 10777 10783 10791 10794 10796 10804 10815 10820 10824 10831 10836 10841 10847 10853 10860 10866 10869 10873 10877 10884 10891 10895 10898 10905 10912 10919 10926 10930 10930 10932 10937 10944 10950 10953 10957 10961 10967 10974 10978 10981 10987 10990 10993 10996 10998 10998 10998 11002 11007 11010 11013 11015 11018 11020 11022 11025 11028
10745 10736 10728 10720 10714 10709 10705 10703 10700 10699 10698 10696 10696 10696 10696 10697 10698 10701 10703 10706 10711 10713 10714 10719 10724 10728 10734 10743 10750 10752 10757 10764 10768 10776 10781 10784 10795 10805 10810 10815 10821 10826 10831 10837 10844 10851 10857 10861 10865 10870 10877 10884 10888 10892 10899 10906 10915 10923 10923 10920 10925 10931 10939 10944 10947 10951 10956 10961 10966 10971 10977 10982 10986 10989 10992 10993 10993 10995 10999 11002 11006 11010 11012 11015 11018 11020 11023 11025
10733 10724 10716 10709 10704 10700 10696 10694 10692 10690 10689 10688 10687 10687 10688 10689 10689 10692 10693 10697 10702 10702 10703 10708 10712 10717 10725 10733 10737 10738 10744 10751 10756 10766 10771 10775 10786 10795 10799 10806 10812 10816 10821 10828 10836 10844 10849 10852 10856 10863 10869 10876 10881 10886 10894 10902 10911 10916 10911 10911 10919 10925 10932 10939 10941 10945 10951 10955 10960 10967 10973 10977 10981 10985 10988 10990 10990 10992 10995 10999 11003 11006 11010 11013 11016 11018 11020 11022
10722 10713 10706 10699 10695 10691 10688 10686 10684 10682 10681 10680 10679 10680 10680 10681 10682 10683 10685 10688 10692 10692 10693 10697 10701 10709 10716 10719 10722 10726 10734 10741 10746 10756 10761 10765 10776 10784 10788 10795 10800 10806 10813 10820 10828 10835 10839 10844 10850 10855 10859 10868 10876 10880 10886 10894 10901 10904 10903 10906 10913 10918 10925 10931 10934 10940 10946 10949 10954 10963 10969 10973 10977 10981 10984 10985 10987 10989 10992 10995 10999 11003 11007 11011 11013 11014 11016 11019
10711 10703 10697 10691 10686 10683 10681 10678 10676 10675 10674 10672 10672 10672 10672 10673 10674 10675 10678 10680 10682 10683 10684 10687 10692 10701 10705 10707 10712 10718 10725 10729 10734 10746 10751 10755 10767 10773 10777 10784 10790 10797 10805 10813 10820 10825 10830 10835 10839 10844 10851 10861 10867 10870 10877 10885 10891 10896 10898 10901 10906 10912 10919 10925 10930 10936 10940 10944 10951 10959 10965 10969 10973 10977 10978 10980 10984 10987 10989 10991 10994 10999 11004 11007 11010 11011 11013 11016
10701 10694 10688 10683 10679 10676 10674 10672 10670 10668 10667 10666 10666 10666 10666 10666 10666 10668 10670 10672 10673 10674 10676 10679 10683 10690 10693 10696 10702 10707 10713 10717 10725 10738 10742 10746 10757 10763 10767 10776 10783 10791 10800 10807 10813 10819 10823 10827 10830 10836 10845 10852 10855 10861 10872 10880 10886 10892 10894 10895 10900 10907 10913 10920 10927 10932 10935 10941 10947 10952 10958 10962 10967 10971 10973 10975 10979 10983 10985 10988 10991 10996 11000 11003 11006 11009 11011 11014
10692 10686 10681 10676 10672 10670 10668 10666 10664 10662 10661 10660 10659 10659 10659 10659 10659 10660 10661 10663 10665 10666 10668 10670 10673 10677 10681 10685 10690 10695 10701 10707 10716 10726 10731 10736 10745 10751 10758 10767 10773 10782 10791 10798 10805 10810 10813 10817 10823 10830 10837 10842 10849 10859 10868 10873 10879 10885 10886 10887 10893 10898 10904 10912 10918 10923 10930 10936 10939 10944 10950 10954 10960 10966 10969 10971 10975 10978 10981 10985 10988 10993 10996 10998 11002 11006 11009 11011
10685 10679 10674 10670 10666 10664 10661 10659 10658 10656 10655 10654 10653 10653 10653 10652 10653 10653 10653 10655 10656 10657 10659 10661 10663 10666 10670 10674 10678 10684 10691 10697 10706 10715 10720 10725 10732 10739 10747 10755 10763 10773 10779 10784 10790 10795 10800 10806 10810 10817 10826 10834 10843 10854 10860 10863 10869 10874 10876 10879 10883 10888 10897 10906 10911 10918 10927 10929 10931 10937 10941 10947 10956 10963 10964 10965 10969 10972 10976 10981 10986 10989 10991 10994 10998 11002 11006 11009
10679 10673 10668 10664 10661 10658 10656 10655 10653 10651 10650 10649 10648 10647 10646 10646 10646 10645 10645 10646 10646 10647 10649 10652 10654 10655 10658 10663 10667 10675 10681 10686 10696 10703 10708 10714 10721 10729 10737 10744 10753 10761 10764 10769 10775 10779 10786 10791 10795 10804 10816 10826 10835 10845 10849 10853 10861 10867 10869 10872 10875 10881 10893 10901 10906 10915 10922 10922 10923 10928 10932 10942 10954 10958 10958 10960 10963 10967 10972 10977 10981 10984 10987 10990 10994 10999 11003 11005
10672 10668 10663 10660 10656 10654 10652 10650 10648 10647 10645 10644 10643 10642 10640 10639 10638 10637 10636 10635 10635 10636 10638 10642 10644 10644 10648 10652 10657 10665 10669 10674 10685 10692 10697 10704 10711 10718 10725 10732 10741 10744 10746 10754 10761 10766 10774 10780 10787 10799 10812 10819 10827 10837 10839 10843 10852 10858 10860 10863 10867 10875 10887 10896 10902 10909 10912 10912 10913 10916 10925 10938 10948 10951 10953 10955 10958 10963 10969 10972 10974 10978 10981 10985 10990 10995 10998 11000
10667 10663 10659 10655 10652 10650 10648 10646 10644 10642 10640 10639 10638 10636 10634 10631 10629 10628 10627 10625 10624 10626 10629 10632 10634 10635 10639 10643 10648 10655 10658 10666 10678 10683 10688 10695 10700 10704 10708 10714 10723 10725 10726 10735 10744 10754 10765 10775 10782 10792 10802 10808 10816 10825 10829 10835 10845 10848 10849 10855 10862 10870 10881 10890 10895 10898 10900 10903 10904 10909 10921 10934 10941 10947 10950 10953 10958 10961 10964 10966 10968 10972 10976 10981 10985 10990 10993 10996
10662 10658 10654 10651 10648 10646 10644 10642 10639 10637 10635 10634 10632 10629 10627 10624 10621 10618 10617 10616 10615 10617 10619 10622 10624 10626 10629 10633 10640 10645 10648 10658 10669 10674 10680 10684 10686 10689 10693 10700 10705 10704 10708 10722 10734 10743 10756 10766 10772 10780 10789 10798 10805 10814 10820 10827 10835 10837 10841 10851 10858 10863 10872 10881 10884 10886 10891 10895 10898 10906 10921 10931 10937 10942 10946 10951 10954 10955 10956 10958 10962 10967 10972 10976 10980 10984 10988 10990
10657 10653 10651 10648 10644 10642 10640 10638 10636 10633 10632 10629 10626 10624 10620 10618 10614 10610 10608 10607 10607 10608 10609 10610 10613 10616 10619 10625 10631 10636 10641 10649 10657 10663 10667 10669 10671 10676 10681 10689 10692 10691 10703 10720 10728 10737 10752 10763 10769 10778 10788 10796 10801 10806 10809 10816 10823 10828 10834 10843 10847 10852 10863 10871 10875 10879 10885 10891 10895 10904 10916 10923 10928 10933 10937 10941 10944 10944 10947 10951 10956 10962 10968 10971 10975 10978 10981 10984
10653 10649 10647 10644 10641 10639 10636 10634 10632 10630 10629 10626 10622 10619 10614 10612 10608 10603 10601 10599 10599 10600 10600 10602 10605 10608 10612 10616 10621 10627 10633 10638 10644 10648 10651 10656 10662 10666 10672 10679 10682 10690 10708 10720 10726 10739 10754 10759 10764 10774 10785 10793 10797 10799 10801 10808 10816 10822 10828 10834 10839 10847 10857 10865 10872 10877 10883 10889 10894 10901 10909 10915 10922 10928 10932 10936 10938 10939 10943 10947 10953 10959 10962 10965 10968 10971 10975 10979
10649 10646 10643 10641 10639 10636 10634 10631 10628 10627 10625 10622 10619 10614 10609 10605 10602 10598 10595 10593 10593 10593 10594 10596 10599 10602 10604 10607 10611 10618 10624 10628 10633 10639 10644 10651 10657 10661 10668 10676 10684 10696 10712 10721 10729 10742 10748 10747 10753 10765 10772 10778 10786 10790 10794 10804 10812 10816 10821 10827 10833 10841 10850 10860 10867 10871 10877 10882 10886 10895 10903 10910 10918 10926 10932 10935 10934 10936 10939 10943 10948 10952 10954 10957 10960 10965 10970 10974
10645 10642 10640 10638 10636 10634 10631 10628 10625 10623 10621 10618 10614 10609 10604 10599 10595 10592 10590 10588 10588 10588 10589 10590 10593 10596 10598 10601 10605 10611 10616 10621 10628 10636 10642 10647 10650 10655 10664 10675 10685 10698 10707 10712 10721 10730 10733 10734 10742 10751 10755 10763 10776 10781 10786 10796 10803 10806 10812 10819 10827 10835 10843 10851 10856 10860 10867 10870 10875 10885 10894 10901 10910 10919 10927 10928 10926 10929 10933 10936 10940 10944 10947 10950 10954 10959 10965 10970
10642 10639 10637 10635 10633 10631 10629 10626 10623 10621 10618 10614 10610 10605 10600 10595 10591 10588 10585 10584 10583 10584 10585 10586 10588 10591 10593 10597 10600 10605 10610 10616 10623 10631 10636 10639 10643 10650 10660 10669 10678 10688 10694 10697 10704 10710 10715 10723 10731 10738 10744 10755 10767 10772 10776 10786 10793 10798 10805 10813 10821 10829 10836 10843 10848 10854 10858 10858 10863 10875 10883 10891 10901 10909 10916 10918 10917 10921 10926 10928 10932 10936 10940 10944 10948 10954 10960 10965
10639 10637 10635 10633 10631 10629 10627 10625 10622 10619 10616 10612 10607 10602 10597 10592 10588 10585 10582 10580 10580 10581 10581 10583 10585 10587 10590 10593 10596 10600 10605 10610 10615 10621 10627 10632 10637 10644 10653 10661 10669 10678 10683 10686 10695 10704 10711 10719 10726 10733 10743 10754 10762 10767 10771 10777 10784 10792 10800 10809 10817 10822 10828 10834 10837 10841 10843 10844 10853 10866 10874 10884 10896 10903 10909 10912 10912 10914 10917 10919 10924 10929 10934 10939 10944 10949 10955 10960
10637 10634 10632 10630 10628 10626 10624 10623 10620 10617 10613 10609 10605 10599 10594 10590 10586 10582 10580 10578 10577 10578 10578 10580 10582 10583 10586 10589 10592 10596 10601 10604 10608 10613 10619 10625 10631 10637 10645 10653 10663 10672 10675 10682 10694 10703 10709 10715 10720 10728 10741 10751 10757 10764 10768 10770 10775 10784 10793 10804 10813 10815 10817 10820 10822 10826 10831 10836 10846 10859 10868 10880 10891 10896 10901 10906 10906 10907 10909 10911 10916 10923 10928 10933 10938 10944 10950 10954
10635 10632 10630 10628 10627 10624 10622 10620 10618 10614 10611 10607 10602 10597 10592 10588 10584 10581 10578 10576 10575 10575 10576 10577 10579 10580 10582 10585 10587 10591 10595 10598 10603 10608 10613 10618 10623 10629 10637 10646 10657 10664 10667 10676 10687 10693 10697 10704 10711 10720 10731 10738 10743 10752 10758 10760 10766 10778 10788 10798 10806 10807 10806 10809 10813 10816 10820 10826 10837 10850 10861 10873 10882 10886 10891 10896 10896 10898 10903 10905 10909 10917 10923 10926 10931 10938 10945 10949
10632 10630 10628 10626 10625 10623 10620 10618 10616 10612 10609 10605 10600 10595 10590 10586 10583 10580 10577 10575 10574 10574 10574 10575 10576 10577 10580 10582 10584 10587 10590 10594 10598 10602 10607 10612 10616 10621 10629 10639 10648 10653 10660 10670 10678 10682 10686 10694 10702 10710 10717 10723 10731 10740 10746 10749 10757 10770 10780 10788 10792 10790 10787 10792 10801 10805 10807 10817 10831 10843 10853 10864 10873 10879 10883 10886 10887 10890 10896 10899 10904 10912 10917 10921 10925 10932 10939 10943
10630 10628 10626 10624 10623 10621 10619 10617 10615 10611 10608 10604 10599 10594 10589 10585 10582 10579 10577 10575 10573 10573 10573 10573 10574 10575 10577 10580 10581 10584 10586 10590 10593 10596 10601 10607 10611 10616 10624 10632 10640 10646 10654 10663 10669 10675 10682 10689 10696 10703 10709 10717 10726 10734 10739 10744 10752 10762 10772 10779 10777 10770 10770 10780 10792 10795 10798 10809 10823 10834 10845 10857 10866 10870 10871 10874 10878 10883 10889 10894 10899 10906 10912 10916 10921 10926 10932 10936
10628 10626 10624 10623 10621 10620 10618 10616 10614 10611 10607 10603 10598 10594 10589 10585 10581 10579 10577 10575 10574 10573 10572 10572 10573 10574 10576 10578 10579 10581 10583 10586 10590 10593 10598 10603 10607 10612 10617 10624 10632 10639 10648 10656 10662 10670 10678 10684 10690 10694 10700 10709 10717 10724 10729 10736 10744 10752 10761 10765 10756 10753 10765 10779 10785 10787 10792 10802 10815 10826 10838 10850 10858 10860 10860 10863 10867 10872 10881 10888 10892 10898 10905 10910 10916 10921 10925 10929
10627 10624 10623 10621 10620 10619 10617 10615 10612 10610 10606 10602 10598 10594 10590 10585 10581 10579 10577 10575 10574 10573 10572 10572 10573 10573 10575 10577 10578 10580 10582 10584 10587 10590 10595 10600 10603 10607 10612 10618 10625 10633 10641 10650 10656 10662 10669 10675 10680 10685 10690 10696 10703 10710 10718 10727 10736 10744 10754 10755 10745 10746 10762 10771 10773 10778 10786 10794 10808 10823 10835 10845 10853 10856 10856 10859 10860 10866 10877 10883 10885 10891 10897 10903 10908 10914 10918 10923
10625 10623 10621 10620 10619 10618 10616 10614 10612 10609 10606 10602 10598 10594 10590 10586 10582 10579 10577 10575 10574 10573 10572 10572 10572 10573 10574 10576 10577 10579 10580 10583 10585 10588 10592 10596 10599 10603 10607 10613 10620 10626 10634 10640 10646 10652 10658 10664 10672 10677 10682 10689 10697 10704 10711 10720 10730 10737 10742 10739 10729 10732 10751 10763 10766 10771 10777 10785 10800 10818 10830 10840 10848 10850 10850 10852 10856 10864 10874 10878 10880 10885 10890 10894 10900 10905 10910 10915
10623 10622 10620 10619 10618 10616 10615 10613 10611 10608 10605 10602 10599 10595 10591 10587 10583 10580 10577 10576 10574 10573 10572 10572 10572 10573 10574 10575 10576 10578 10579 10581 10583 10586 10589 10593 10596 10599 10603 10608 10613 10619 10625 10631 10638 10644 10648 10656 10666 10672 10677 10684 10691 10696 10705 10715 10722 10725 10724 10718 10714 10725 10749 10764 10763 10764 10773 10784 10797 10812 10822 10831 10838 10839 10839 10843 10849 10855 10863 10869 10873 10877 10880 10886 10892 10896 10902 10908
10622 10620 10619 10618 10617 10616 10614 10612 10610 10608 10605 10602 10599 10595 10592 10588 10585 10582 10579 10576 10575 10574 10573 10572 10572 10572 10573 10574 10575 10577 10578 10580 10582 10584 10587 10590 10593 10596 10599 10603 10607 10613 10619 10625 10631 10636 10641 10651 10662 10666 10670 10674 10679 10688 10701 10709 10713 10715 10715 10714 10718 10732 10750 10757 10752 10755 10770 10784 10795 10806 10815 10822 10827 10828 10831 10836 10839 10844 10851 10858 10863 10865 10869 10875 10882 10888 10895 10901
10621 10619 10618 10617 10616 10615 10613 10611 10609 10607 10604 10602 10599 10596 10592 10589 10586 10583 10580 10578 10576 10574 10573 10573 10572 10572 10573 10573 10574 10576 10577 10579 10581 10583 10585 10588 10591 10593 10596 10600 10603 10608 10612 10617 10623 10629 10637 10647 10653 10658 10663 10666 10671 10681 10690 10694 10699 10704 10705 10706 10713 10725 10737 10744 10745 10749 10764 10780 10788 10796 10804 10811 10815 10818 10822 10825 10827 10833 10840 10846 10851 10855 10859 10866 10874 10880 10886 10893